Location: Bern�tre
(50.1974°N, 2.0915°E)
Time: 06:27:48
(UTC+00:00)

Cosmos 909 Rocket - Pass Details

Date: 18 September 2020
Orbit: 991 x 2088 km, 65.9° (Epoch: 27 October)

Event Time Altitude Azimuth Distance (km) Brightness Sun altitude
Rises 21:38:18 0° 320° (NW) 3,969 8.3 -31.7°
Reaches altitude 10° 21:41:04 10° 321° (NW) 2,913 7.3 -31.9°
Enters shadow 21:46:59 72° 324° (NW) 1,054 4.1 -32.5°
